Regional Weather Roundup
Issued by NWS

Home | Current Version | Previous Version | Text Only | Print | Product List | Glossary On
Versions: 1 2 3 4 5 6 7 8 9 10 11 12 13 14 15 16 17 18 19 20 21 22 23 24 25 26 27 28 29 30 31 32 33 34 35 36 37 38 39 40 41 42 43 44 45 46 47 48 49 50
000
ASUS43 KLSX 221307
RWRMO

WEATHER SUMMARY FOR MISSOURI
NATIONAL WEATHER SERVICE SPRINGFIELD MO
800 AM CDT FRI MAY 22 2015

NOTE: "FAIR" INDICATES FEW OR NO CLOUDS BELOW 12,000 FEET WITH NO
       SIGNIFICANT WEATHER AND/OR OBSTRUCTIONS TO VISIBILITY.
       CURRENT SKY AND/OR WEATHER CONDITIONS ARE NOT AVAILABLE FOR
       CHILLICOTHE AND FARMINGTON.

MOZ001>031-035>038-043-044-053-054-221400-
...NORTHERN AND WESTERN MISSOURI...

CITY           SKY/WX    TMP DP  RH WIND       PRES   REMARKS
KANSAS CTY INT CLOUDY    57  47  69 CALM      30.24R
KANSAS C DTWN  CLOUDY    55  49  80 SW3       30.24R
LEE`S SUMMIT   PTSUNNY   55  51  86 CALM      30.25R
ST JOSEPH      PTSUNNY   53  50  89 CALM      30.23S
CHILLICOTHE      N/A     60  48  64 CALM      30.23F
KIRKSVILLE     SUNNY     57  46  66 W9        30.22S

$$
MOZ066>068-077>081-088>096-101>105-221400-
...SOUTHWEST MISSOURI...

CITY           SKY/WX    TMP DP  RH WIND       PRES   REMARKS
SPRINGFIELD    MOSUNNY   52  45  77 SE9       30.26R
JOPLIN         PTSUNNY   55  48  77 S8        30.27R

$$
MOZ032>034-039>042-045>050-055>058-069>072-221400-
...CENTRAL MISSOURI...

CITY           SKY/WX    TMP DP  RH WIND       PRES   REMARKS
COLUMBIA       SUNNY     58  47  66 NW7       30.25S
JEFFERSON CITY SUNNY     52  47  83 CALM      30.26S
ROLLA          SUNNY     51  45  79 SW3       30.25S
SEDALIA        MOSUNNY   57  48  72 CALM      30.25S
WHITEMAN AFB   MOSUNNY   55  49  80 SW5       30.24R
WARRENSBURG    MOSUNNY   54  48  82 S3        30.25R
OSAGE BEACH    SUNNY     48  43  81 CALM      30.26S

$$
MOZ051-052-059>065-221400-
...EAST CENTRAL MISSOURI...

CITY           SKY/WX    TMP DP  RH WIND       PRES   REMARKS
ST LOUIS INTL  MOSUNNY   59  46  62 W8        30.24R
SPIRIT OF STL  SUNNY     56  48  74 W8        30.23S
ST CHARLES     SUNNY     57  47  69 W8        30.23R

$$
MOZ072>076-082>087-097>100-106>115-221400-
...SOUTH CENTRAL AND SOUTHEAST MISSOURI...

CITY           SKY/WX    TMP DP  RH WIND       PRES   REMARKS
CAPE GIRARDEAU SUNNY     51  48  89 W3        30.30R
FARMINGTON     SUNNY     48  46  93 CALM      30.31R
POPLAR BLUFF   SUNNY     52  47  83 CALM      30.30R
WEST PLAINS    SUNNY     52  48  86 S6        30.30R

$$



USA.gov is the U.S. government's official web portal to all federal, state and local government web resources and services.